Location: *
(51.8167°N, 12.5000°E)
Time: 22:34:17
(UTC+00:00)

Cosmos 2237 Rocket - Pass Details

Date: 16 September 2019
Orbit: 833 x 851 km, 71.0° (Epoch: 13 October)

Event Time Altitude Azimuth Distance (km) Brightness Sun altitude
Rises 18:26:24 0° 330° (NNW) 3,424 6.2 -10.4°
Reaches altitude 10° 18:28:56 10° 335° (NNW) 2,487 5.3 -10.8°
Maximum altitude 18:34:31 53° 52° (NE) 1,045 2.5 -11.6°
Enters shadow 18:39:04 15° 126° (SE) 2,115 3.7 -12.2°
